Flag for US Virgin Islands Weather past 2 weeks in Christiansted, US Virgin Islands

89 °F

Passing clouds.

Feels Like: 103 °F
Forecast: 78 / 85 °F
Wind: 15 mph from East

Location: Christiansted / Henry E. Rohlsen Airport - Saint Croix

Current Time: Oct 9, 2015 at 1:51:56 PM

Latest Report: Oct 9, 2015 at 12:53 PM

Visibility: 9 mi

Pressure: 29.97 "Hg

Humidity: 70%

Dew point: 78 °F

Location of ChristianstedLocation

Historic Weather in Christiansted — Graph


Christiansted temperature yesterday

Maximum temperature yesterday: 89 °F (at 8:53 AM)
Minimum temperature yesterday: 78 °F (at 3:34 PM)
Average temperature yesterday: 81 °F

Past Weeks' High & Low Weather Summary

High92 °F (Oct 6, 11:53 AM)94% (Sep 30, 4:35 AM)30.04 "Hg (Sep 30, 4:35 AM)
Low76 °F (Sep 27, 5:53 AM)59% (Sep 28, 12:53 PM)29.75 "Hg (Oct 1, 3:53 PM)
Average84 °F77%29.91 "Hg
* Reported Sep 24 12:53 PM — Oct 9 12:53 PM, Christiansted, Weather by CustomWeather, © 2015

Note: Actual official high and low records may vary slightly from our data, if they occured in-between our weather recording intervals... More about our weather records


Christiansted weather history for previous 24 hours

Time TempWeatherWind HumidityBarometerVisibility
12:53 PM
Fri, Oct 9
89 °FPassing clouds.15 mph70%29.97 "Hg9 mi
11:53 AM88 °FPartly sunny.15 mph73%30.00 "Hg9 mi
10:53 AM87 °FPassing clouds.12 mph72%30.02 "Hg9 mi
9:53 AM86 °FSunny.12 mph75%30.03 "Hg10 mi
8:53 AM82 °FScattered clouds.5 mph82%30.03 "Hg10 mi
7:53 AM81 °FScattered clouds.6 mph85%30.02 "Hg10 mi
6:53 AM79 °FPartly sunny.5 mph88%30.01 "Hg10 mi
5:53 AM77 °FClear.5 mph94%29.97 "Hg10 mi
4:53 AM77 °FClear.5 mph94%29.97 "Hg10 mi
3:53 AM76 °FClear.5 mph94%29.95 "Hg10 mi
2:53 AM76 °FClear.5 mph94%29.95 "Hg10 mi
1:53 AM76 °FPassing clouds.6 mph94%29.96 "Hg10 mi
12:53 AM77 °FClear.No wind90%29.96 "Hg10 mi
11:53 PM
Thu, Oct 8
81 °FClear.8 mph79%29.98 "Hg10 mi
10:53 PM81 °FClear.10 mph77%30.00 "Hg10 mi
10:27 PM81 °FPassing clouds.10 mph79%30.01 "Hg10 mi
10:20 PM81 °FPassing clouds.12 mph82%30.02 "Hg10 mi
9:53 PM80 °FPassing clouds.10 mph85%30.02 "Hg10 mi
9:03 PM81 °FPassing clouds.10 mph82%30.03 "Hg10 mi
7:53 PM80 °FPartly cloudy.8 mph87%29.99 "Hg10 mi
6:53 PM79 °FPassing clouds.6 mph90%29.96 "Hg10 mi
5:53 PM79 °FPassing clouds.No wind88%29.93 "Hg10 mi
4:53 PM78 °FScattered clouds.No wind90%29.93 "Hg10 mi
4:05 PM78 °FScattered clouds.3 mph93%29.95 "Hg10 mi
3:34 PM78 °FThunderstorms. Partly sunny.7 mph93%29.94 "Hg10 mi
3:06 PM79 °FThunderstorms. Fog.5 mph89%29.93 "Hg3 mi
2:32 PM81 °FLight rain. Fog.8 mph89%29.94 "Hg6 mi
2:20 PM80 °FLight rain. Cloudy.13 mph85%29.93 "Hg2 mi
2:06 PM82 °FLight rain. Broken clouds.7 mph84%29.93 "Hg2 mi
1:53 PM83 °FLight rain. Broken clouds.3 mph85%29.92 "Hg8 mi
1:07 PM80 °FLight rain. Broken clouds.5 mph90%29.94 "Hg9 mi
Weather by CustomWeather, © 2015

See weather overviewHow to use our weather pages